Weather History for Bentonville, AR

Change the Weather History Date:

Saturday, January 25, 2014

  Actual Average Record
Temperature  
Mean Temperature 42 °F -  
Max Temperature 55 °F 48 °F 75 °F (1950)
Min Temperature 30 °F 24 °F 2 °F (1979)
Degree Days  
Heating Degree Days 22    
Moisture  
Dew Point 20 °F    
Average Humidity 45    
Maximum Humidity 80    
Minimum Humidity 30    
Precipitation  
Precipitation 0.00 in - - ()
Sea Level Pressure  
Sea Level Pressure 29.96 in    
Wind  
Wind Speed 10 mph (West)    
Max Wind Speed 17 mph    
Max Gust Speed 25 mph    
Visibility 10 miles    
Events      
Averages and records for this station are not official NWS values.
T = Trace of Precipitation, MM = Missing Value Source: NWS Daily Summary

Daily Weather History Graph

Daily Weather History Graph

Search for Another Location

Airport:

Trip Planner

Search our weather history database for the weather conditions in past years. The results will help you decide how hot, cold, wet, or windy it might be!

Date:

Astronomy

Jan. 25, 2014 Rise Set
Actual Time 7:23 AM CST 5:35 PM CST
Civil Twilight 6:55 AM CST 6:03 PM CST
Nautical Twilight 6:24 AM CST 6:34 PM CST
Astronomical Twilight 5:53 AM CST 7:05 PM CST
Moon 1:56 AM CST (1/25) 12:36 PM CST (1/25)
Length of Visible Light 11h 07m
Length of Day
10h 12m
Waning Crescent, 34% of the Moon is Illuminated
Jan 25
Waning Crescent
Jan 30
New
Feb 6
First Quarter
Feb 14
Full
Feb 22
Last Quarter

Hourly Weather History & Observations

Time (CST) Temp. Windchill Dew Point Humidity Pressure Visibility Wind Dir Wind Speed Gust Speed Precip Events Conditions
12:15 AM 32.0 °F 22.1 °F 5.0 °F 32% 29.99 in 10.0 mi WSW 13.8 mph 20.7 mph N/A   Clear
12:35 AM 32.0 °F 22.1 °F 5.0 °F 32% 29.98 in 10.0 mi SW 13.8 mph 19.6 mph N/A   Clear
12:55 AM 32.0 °F 21.6 °F 6.8 °F 35% 29.97 in 10.0 mi SW 15.0 mph 20.7 mph N/A   Mostly Cloudy
1:15 AM 33.8 °F 23.5 °F 6.8 °F 32% 29.96 in 10.0 mi WSW 16.1 mph - N/A   Overcast
1:35 AM 33.8 °F 23.9 °F 6.8 °F 32% 29.94 in 10.0 mi SW 15.0 mph 24.2 mph N/A   Overcast
1:55 AM 35.6 °F 26.6 °F 6.8 °F 30% 29.93 in 10.0 mi WSW 13.8 mph 21.9 mph N/A   Overcast
2:15 AM 35.6 °F 26.6 °F 8.6 °F 33% 29.93 in 10.0 mi SW 13.8 mph 20.7 mph N/A   Overcast
2:35 AM 33.8 °F 24.8 °F 8.6 °F 35% 29.93 in 10.0 mi SW 12.7 mph - N/A   Scattered Clouds
2:55 AM 33.8 °F 24.8 °F 8.6 °F 35% 29.92 in 10.0 mi SW 12.7 mph - N/A   Clear
3:15 AM 33.8 °F 24.3 °F 8.6 °F 35% 29.92 in 10.0 mi SW 13.8 mph 17.3 mph N/A   Mostly Cloudy
3:35 AM 35.6 °F 27.5 °F 8.6 °F 33% 29.92 in 10.0 mi WSW 11.5 mph 18.4 mph N/A   Overcast
3:55 AM 35.6 °F 27.1 °F 8.6 °F 33% 29.92 in 10.0 mi WSW 12.7 mph 17.3 mph N/A   Overcast
4:15 AM 35.6 °F 27.1 °F 8.6 °F 33% 29.92 in 10.0 mi WSW 12.7 mph - N/A   Overcast
4:35 AM 35.6 °F 28.6 °F 8.6 °F 33% 29.93 in 10.0 mi WSW 9.2 mph - N/A   Overcast
4:55 AM 35.6 °F 29.2 °F 8.6 °F 33% 29.92 in 10.0 mi WSW 8.1 mph - N/A   Mostly Cloudy
5:15 AM 33.8 °F 28.6 °F 10.4 °F 38% 29.93 in 10.0 mi WSW 5.8 mph - N/A   Mostly Cloudy
5:35 AM 35.6 °F 29.9 °F 10.4 °F 35% 29.93 in 10.0 mi WSW 6.9 mph - N/A   Overcast
5:55 AM 35.6 °F 29.2 °F 10.4 °F 35% 29.94 in 10.0 mi WSW 8.1 mph - N/A   Overcast
6:15 AM 33.8 °F 27.0 °F 10.4 °F 38% 29.94 in 10.0 mi WSW 8.1 mph - N/A   Overcast
6:35 AM 33.8 °F 27.7 °F 10.4 °F 38% 29.94 in 10.0 mi WSW 6.9 mph - N/A   Overcast
6:55 AM 33.8 °F 27.7 °F 10.4 °F 38% 29.95 in 10.0 mi WSW 6.9 mph - N/A   Mostly Cloudy
7:15 AM 33.8 °F 30.8 °F 12.2 °F 41% 29.96 in 10.0 mi WSW 3.5 mph - N/A   Overcast
7:35 AM 33.8 °F 28.6 °F 10.4 °F 38% 29.97 in 10.0 mi SW 5.8 mph - N/A   Mostly Cloudy
7:55 AM 32.0 °F 28.7 °F 12.2 °F 44% 29.97 in 10.0 mi WSW 3.5 mph - N/A   Mostly Cloudy
8:15 AM 33.8 °F 28.6 °F 12.2 °F 41% 29.98 in 10.0 mi SW 5.8 mph - N/A   Partly Cloudy
8:35 AM 35.6 °F 31.7 °F 12.2 °F 38% 29.98 in 10.0 mi WSW 4.6 mph - N/A   Clear
8:55 AM 37.4 °F 32.8 °F 14.0 °F 38% 29.98 in 10.0 mi WSW 5.8 mph - N/A   Partly Cloudy
9:15 AM 39.2 °F 34.2 °F 15.8 °F 39% 30.00 in 10.0 mi West 6.9 mph - N/A   Clear
9:35 AM 42.8 °F 38.0 °F 17.6 °F 36% 30.00 in 10.0 mi WNW 8.1 mph - N/A   Clear
9:55 AM 44.6 °F 40.2 °F 19.4 °F 37% 30.00 in 10.0 mi WNW 8.1 mph - N/A   Clear
10:15 AM 46.4 °F 42.9 °F 21.2 °F 37% 30.01 in 10.0 mi WNW 6.9 mph - N/A   Clear
10:35 AM 48.2 °F - 23.0 °F 37% 30.01 in 10.0 mi NW 5.8 mph - N/A   Clear
10:55 AM 48.2 °F - 26.6 °F 43% 30.00 in 10.0 mi NW 8.1 mph 16.1 mph N/A   Clear
11:15 AM 51.8 °F - 28.4 °F 41% 30.00 in 10.0 mi NNW 8.1 mph - N/A   Clear
11:35 AM 51.8 °F - 28.4 °F 41% 30.00 in 10.0 mi NW 11.5 mph - N/A   Clear
11:55 AM 51.8 °F - 28.4 °F 41% 30.00 in 10.0 mi NW 12.7 mph - N/A   Clear
12:15 PM 53.6 °F - 28.4 °F 38% 29.99 in 10.0 mi NNW 15.0 mph 19.6 mph N/A   Clear
12:35 PM 53.6 °F - 30.2 °F 41% 29.98 in 10.0 mi NW 17.3 mph 21.9 mph N/A   Clear
12:55 PM 53.6 °F - 30.2 °F 41% 29.98 in 10.0 mi NW 13.8 mph 20.7 mph N/A   Clear
1:15 PM 55.4 °F - 30.2 °F 38% 29.97 in 10.0 mi NW 12.7 mph 16.1 mph N/A   Partly Cloudy
1:35 PM 55.4 °F - 30.2 °F 38% 29.97 in 10.0 mi NW 12.7 mph 20.7 mph N/A   Mostly Cloudy
1:55 PM 55.4 °F - 30.2 °F 38% 29.96 in 10.0 mi NNW 10.4 mph 21.9 mph N/A   Mostly Cloudy
2:15 PM 55.4 °F - 30.2 °F 38% 29.96 in 10.0 mi NNW 11.5 mph 21.9 mph N/A   Partly Cloudy
2:35 PM 55.4 °F - 30.2 °F 38% 29.96 in 10.0 mi NW 12.7 mph - N/A   Scattered Clouds
2:55 PM 55.4 °F - 30.2 °F 38% 29.95 in 10.0 mi NNW 11.5 mph 17.3 mph N/A   Overcast
3:15 PM 53.6 °F - 30.2 °F 41% 29.96 in 10.0 mi NNW 10.4 mph - N/A   Scattered Clouds
3:35 PM 55.4 °F - 30.2 °F 38% 29.96 in 10.0 mi NW 13.8 mph 18.4 mph N/A   Mostly Cloudy
3:55 PM 53.6 °F - 28.4 °F 38% 29.97 in 10.0 mi NNW 15.0 mph 25.3 mph N/A   Mostly Cloudy
4:15 PM 53.6 °F - 28.4 °F 38% 29.97 in 10.0 mi NW 11.5 mph 20.7 mph N/A   Partly Cloudy
4:35 PM 51.8 °F - 28.4 °F 41% 29.98 in 10.0 mi NW 10.4 mph 16.1 mph N/A   Partly Cloudy
4:55 PM 51.8 °F - 28.4 °F 41% 29.98 in 10.0 mi NNW 11.5 mph 16.1 mph N/A   Partly Cloudy
5:15 PM 50.0 °F - 28.4 °F 43% 29.98 in 10.0 mi North 10.4 mph - N/A   Clear
5:35 PM 48.2 °F - 28.4 °F 46% 29.98 in 10.0 mi NNW 6.9 mph - N/A   Clear
5:55 PM 46.4 °F 42.9 °F 28.4 °F 50% 29.98 in 10.0 mi North 6.9 mph - N/A   Clear
6:15 PM 46.4 °F 43.5 °F 28.4 °F 50% 29.99 in 10.0 mi North 5.8 mph - N/A   Clear
6:35 PM 44.6 °F 40.2 °F 28.4 °F 53% 29.99 in 10.0 mi NNW 8.1 mph - N/A   Clear
6:55 PM 44.6 °F 42.2 °F 28.4 °F 53% 29.99 in 10.0 mi NNW 4.6 mph - N/A   Clear
7:15 PM 42.8 °F - 26.6 °F 53% 29.99 in 10.0 mi Calm Calm - N/A   Clear
7:35 PM 39.2 °F 35.9 °F 26.6 °F 61% 29.99 in 10.0 mi North 4.6 mph - N/A   Clear
7:55 PM 37.4 °F 34.9 °F 26.6 °F 65% 29.99 in 10.0 mi East 3.5 mph - N/A   Clear
8:15 PM 35.6 °F 32.8 °F 24.8 °F 65% 29.99 in 10.0 mi ENE 3.5 mph - N/A   Clear
8:35 PM 35.6 °F - 26.6 °F 70% 29.99 in 10.0 mi Calm Calm - N/A   Clear
8:55 PM 35.6 °F - 26.6 °F 70% 29.98 in 10.0 mi Calm Calm - N/A   Clear
9:15 PM 35.6 °F 32.8 °F 26.6 °F 70% 29.97 in 10.0 mi ESE 3.5 mph - N/A   Clear
9:35 PM 32.0 °F - 24.8 °F 75% 29.97 in 10.0 mi Calm Calm - N/A   Clear
9:55 PM 32.0 °F 27.5 °F 24.8 °F 75% 29.97 in 10.0 mi SE 4.6 mph - N/A   Clear
10:15 PM 30.2 °F 26.7 °F 24.8 °F 80% 29.96 in 10.0 mi SSE 3.5 mph - N/A   Clear
10:35 PM 30.2 °F 24.3 °F 24.8 °F 80% 29.94 in 10.0 mi SSE 5.8 mph - N/A   Clear
10:55 PM 32.0 °F 27.5 °F 26.6 °F 80% 29.94 in 10.0 mi South 4.6 mph - N/A   Clear
11:15 PM 30.2 °F 23.4 °F 24.8 °F 80% 29.93 in 10.0 mi SSE 6.9 mph - N/A   Clear
11:35 PM 30.2 °F 25.4 °F 24.8 °F 80% 29.92 in 10.0 mi SSE 4.6 mph - N/A   Clear
11:55 PM 32.0 °F 26.4 °F 26.6 °F 80% 29.91 in 10.0 mi SSE 5.8 mph - N/A   Clear